Hourly Data Report for March 09, 2005

TORONTO CITY
ONTARIO

43°40'00.000" N
79°24'00.000" W
112.50 m
6158355
71508
XTO

Download Data

Hourly Data (March 2005)
Hourly Data Report for March 9, 2005
TIME
LST
Temp Definition
°C
Dew Point Definition
°C
Rel Hum Definition
%
Precip. Amount Definition
mm

Wind Dir Definition
10's deg

Wind Spd Definition
km/h
Visibility Definition
km
Stn Press Definition
kPa
Hmdx Definition


Wind Chill Definition


Weather Definition


00:00 -10.3 -15.5 66   LegendMM LegendMM   99.41     LegendNANA
01:00 -10.6 -16.2 63   LegendMM LegendMM   99.46     LegendNANA
02:00 -11.1 -16.6 64   LegendMM LegendMM   99.53     LegendNANA
03:00 -11.6 -17.3 63   LegendMM LegendMM   99.53     LegendNANA
04:00 -12.0 -19.4 54   LegendMM LegendMM   99.56     LegendNANA
05:00 -12.3 -19.6 54   LegendMM LegendMM   99.60     LegendNANA
06:00 -12.4 -19.1 57   LegendMM LegendMM   99.63     LegendNANA
07:00 -12.8 -17.1 70   LegendMM LegendMM   99.65     LegendNANA
08:00 -11.8 -16.4 69   LegendMM LegendMM   99.71     LegendNANA
09:00 -10.4 -16.6 60   LegendMM LegendMM   99.73     LegendNANA
10:00 -8.4 -17.7 47   LegendMM LegendMM   99.70     LegendNANA
11:00 -6.7 -18.6 38   LegendMM LegendMM   99.63     LegendNANA
12:00 -5.8 -17.4 39   LegendMM LegendMM   99.60     LegendNANA
13:00 -5.5 -15.5 45   LegendMM LegendMM   99.51     LegendNANA
14:00 -5.1 -15.6 43   LegendMM LegendMM   99.47     LegendNANA
15:00 -6.1 -15.1 49   LegendMM LegendMM   99.45     LegendNANA
16:00 -6.0 -14.9 49   LegendMM LegendMM   99.44     LegendNANA
17:00 -6.4 -15.1 50   LegendMM LegendMM   99.46     LegendNANA
18:00 -6.4 -14.3 53   LegendMM LegendMM   99.46     LegendNANA
19:00 -6.9 -13.4 60   LegendMM LegendMM   99.44     LegendNANA
20:00 -7.1 -13.2 62   LegendMM LegendMM   99.45     LegendNANA
21:00 -7.6 -10.8 78   LegendMM LegendMM   99.45     LegendNANA
22:00 -8.6 -10.2 88   LegendMM LegendMM   99.44     LegendNANA
23:00 -8.6 -10.3 87   LegendMM LegendMM   99.41     LegendNANA

Notes on Data Quality.

Legend

  • E = Estimated
  • M = Missing
  • NA = Not Available*
  • [empty] = Indicates an unobserved value
Date modified: